FW8088 Weather Reports


Display with metric or nautical units.
time (UTC)temp
F
wind
direction
speed
MPH
gust
MPH
rain 1hr
in
rain 24hr
in
rain mn
in
humidity
%
barometer
mb
20260509234332 53 14 0.0 0.0 0.21 0.32 0.32 95
20260509233830 53 305 1.0 1.0 0.17 0.28 0.28 95
20260509233327 53 289 5.0 6.0 0.15 0.26 0.26 94
20260509232822 54 314 7.0 8.0 0.11 0.22 0.22 92
20260509232321 56 317 4.0 5.0 0.02 0.13 0.13 86
20260509231817 61 275 8.0 11.0 0.00 0.11 0.11 78
20260509231314 64 308 1.0 1.0 0.00 0.11 0.11 68
20260509230812 65 22 0.0 1.0 0.00 0.11 0.11 65
20260509230308 65 127 1.0 1.0 0.00 0.11 0.11 65
20260509225803 65 91 0.0 1.0 0.00 0.11 0.11 65
20260509225300 65 146 2.0 2.0 0.00 0.11 0.11 65
20260509224756 65 136 3.0 5.0 0.00 0.11 0.11 65
20260509224253 65 192 2.0 2.0 0.00 0.11 0.11 64
20260509223749 65 148 4.0 7.0 0.00 0.11 0.11 64
20260509223247 65 118 2.0 3.0 0.00 0.11 0.11 63
20260509222743 66 73 2.0 2.0 0.00 0.11 0.11 63
20260509222239 66 123 6.0 8.0 0.00 0.11 0.11 63
20260509221734 66 174 1.0 1.0 0.00 0.11 0.11 63
20260509221231 66 155 1.0 2.0 0.00 0.11 0.11 62
20260509220727 66 129 3.0 5.0 0.00 0.11 0.11 60
20260509220224 66 102 2.0 3.0 0.00 0.11 0.11 61
20260509215719 67 108 6.0 9.0 0.00 0.11 0.11 60
20260509215216 67 117 2.0 3.0 0.00 0.11 0.11 60
20260509214713 68 107 3.0 5.0 0.00 0.11 0.11 59
20260509214210 68 230 3.0 3.0 0.00 0.11 0.11 60
20260509213707 68 145 4.0 7.0 0.00 0.11 0.11 59
20260509213202 67 59 0.0 1.0 0.00 0.11 0.11 60
20260509212701 67 125 2.0 3.0 0.00 0.11 0.11 61
20260509212157 67 154 3.0 5.0 0.00 0.11 0.11 60
20260509211653 67 182 1.0 1.0 0.00 0.11 0.11 59
20260509211149 67 125 6.0 10.0 0.00 0.11 0.11 59
20260509210646 66 169 1.0 2.0 0.00 0.11 0.11 62
20260509210143 66 155 4.0 5.0 0.00 0.11 0.11 62
20260509205639 66 118 1.0 3.0 0.00 0.11 0.11 62
20260509205133 66 299 2.0 2.0 0.00 0.11 0.11 61
20260509204629 66 169 2.0 3.0 0.00 0.11 0.11 61
20260509204126 65 137 2.0 2.0 0.00 0.11 0.11 60
20260509203622 66 168 6.0 7.0 0.00 0.11 0.11 61
20260509203120 65 176 2.0 5.0 0.00 0.11 0.11 63
20260509202620 66 93 2.0 3.0 0.00 0.11 0.11 63
20260509202115 66 94 3.0 3.0 0.00 0.11 0.11 61
20260509201610 65 156 2.0 3.0 0.00 0.11 0.11 63
20260509201109 65 204 1.0 1.0 0.00 0.11 0.11 65
20260509200603 65 171 7.0 9.0 0.00 0.11 0.11 62
20260509200059 65 153 4.0 5.0 0.00 0.11 0.11 63
20260509195555 65 133 5.0 6.0 0.00 0.11 0.11 64
20260509195050 65 148 2.0 2.0 0.00 0.11 0.11 64
20260509194549 65 148 1.0 2.0 0.00 0.11 0.11 66
20260509194047 65 145 5.0 7.0 0.00 0.11 0.11 65
20260509193542 65 138 1.0 2.0 0.00 0.11 0.11 66
20260509193039 65 85 0.0 0.0 0.00 0.11 0.11 68
20260509192536 64 159 0.0 1.0 0.00 0.11 0.11 68
20260509192031 64 192 1.0 1.0 0.00 0.11 0.11 67
20260509191525 64 160 6.0 9.0 0.00 0.11 0.11 67
20260509191021 64 157 4.0 5.0 0.00 0.11 0.11 66
20260509190519 64 114 3.0 5.0 0.00 0.11 0.11 68
20260509190017 64 131 2.0 2.0 0.00 0.11 0.11 68
20260509185514 64 172 3.0 3.0 0.00 0.11 0.11 69
20260509185010 64 127 2.0 2.0 0.00 0.11 0.11 69
20260509184509 64 144 2.0 2.0 0.00 0.11 0.11 73
20260509184004 64 169 6.0 9.0 0.00 0.11 0.11 69
20260509183459 64 91 1.0 2.0 0.00 0.11 0.11 70
20260509182955 64 186 2.0 3.0 0.00 0.11 0.11 70
20260509182452 63 133 4.0 7.0 0.00 0.11 0.11 70
20260509181949 63 138 3.0 5.0 0.00 0.11 0.11 71
20260509181447 64 179 2.0 2.0 0.00 0.11 0.11 71
20260509180944 64 88 0.0 1.0 0.00 0.11 0.11 71
20260509180440 66 63 0.0 0.0 0.00 0.11 0.11 72
20260509175937 65 142 0.0 1.0 0.00 0.11 0.11 70
20260509175433 64 209 2.0 2.0 0.00 0.11 0.11 70
20260509174929 64 66 0.0 0.0 0.00 0.11 0.11 73
20260509174426 63 211 3.0 5.0 0.00 0.11 0.11 71
20260509173922 64 145 6.0 8.0 0.00 0.11 0.11 71
20260509173421 63 126 1.0 1.0 0.00 0.11 0.11 72
20260509172918 64 162 0.0 0.0 0.00 0.11 0.11 70
20260509172415 64 162 2.0 3.0 0.00 0.11 0.11 69
20260509171910 64 167 1.0 2.0 0.00 0.11 0.11 72
20260509171407 64 295 1.0 1.0 0.00 0.11 0.11 74
20260509170903 63 320 0.0 0.0 0.00 0.11 0.11 76
20260509170359 63 155 3.0 7.0 0.00 0.11 0.11 76
20260509165854 62 283 1.0 2.0 0.00 0.11 0.11 77
20260509165349 61 4 0.0 0.0 0.00 0.11 0.11 80
20260509164845 61 1 1.0 2.0 0.00 0.11 0.11 80
20260509164341 60 181 2.0 2.0 0.00 0.11 0.11 81
20260509163837 59 131 3.0 3.0 0.00 0.11 0.11 81
20260509163334 59 145 1.0 2.0 0.00 0.11 0.11 84
20260509162834 59 31 0.0 0.0 0.00 0.11 0.11 84
20260509162332 58 125 0.0 0.0 0.00 0.11 0.11 86
20260509161829 58 314 0.0 1.0 0.00 0.11 0.11 87
20260509161325 57 80 0.0 0.0 0.00 0.11 0.11 89
20260509160821 57 331 0.0 0.0 0.00 0.11 0.11 89
20260509160316 57 100 0.0 1.0 0.00 0.11 0.11 88
20260509155812 57 75 1.0 1.0 0.00 0.11 0.11 87
20260509155309 57 85 0.0 1.0 0.00 0.11 0.11 87
20260509154805 57 87 0.0 0.0 0.00 0.11 0.11 91
20260509154302 56 94 0.0 0.0 0.00 0.11 0.11 91
20260509153759 56 44 0.0 0.0 0.00 0.11 0.11 92
20260509153255 55 268 1.0 1.0 0.00 0.11 0.11 93
20260509152752 55 122 0.0 0.0 0.00 0.11 0.11 93
20260509152248 55 137 1.0 1.0 0.00 0.11 0.11 94
20260509151745 54 103 1.0 1.0 0.00 0.11 0.11 94
20260509151241 54 80 0.0 0.0 0.00 0.11 0.11 94
20260509150740 54 116 0.0 0.0 0.00 0.11 0.11 94
20260509150238 54 78 0.0 0.0 0.00 0.11 0.11 95
20260509145735 54 156 0.0 2.0 0.00 0.11 0.11 95
20260509145234 54 154 0.0 0.0 0.01 0.11 0.11 95
20260509144731 53 32 0.0 0.0 0.01 0.11 0.11 95
20260509144228 53 103 1.0 1.0 0.01 0.11 0.11 95
20260509143725 53 72 0.0 0.0 0.01 0.11 0.11 96
20260509143223 53 80 0.0 1.0 0.01 0.11 0.11 96
20260509142718 53 99 0.0 0.0 0.01 0.11 0.11 96
20260509142215 53 123 3.0 3.0 0.01 0.11 0.11 96
20260509141710 53 114 1.0 1.0 0.01 0.11 0.11 97
20260509141208 52 50 0.0 0.0 0.01 0.11 0.11 97
20260509140704 52 42 0.0 0.0 0.01 0.11 0.11 97
20260509140202 52 151 0.0 0.0 0.01 0.11 0.11 97
20260509135659 52 107 1.0 1.0 0.01 0.11 0.11 97
20260509135157 53 170 0.0 1.0 0.00 0.10 0.10 97
20260509134653 52 105 0.0 0.0 0.00 0.10 0.10 97
20260509134151 52 95 0.0 0.0 0.00 0.10 0.10 97
20260509133648 52 83 0.0 0.0 0.00 0.10 0.10 97
20260509133145 51 87 0.0 0.0 0.00 0.10 0.10 97
20260509132643 51 145 2.0 2.0 0.00 0.10 0.10 98
20260509132141 51 95 2.0 3.0 0.00 0.10 0.10 98
20260509131637 51 103 1.0 1.0 0.00 0.10 0.10 98
20260509131134 51 123 0.0 0.0 0.00 0.10 0.10 98
20260509130630 51 166 2.0 3.0 0.00 0.10 0.10 98
20260509130126 51 73 0.0 0.0 0.00 0.10 0.10 98
20260509125623 51 162 0.0 0.0 0.00 0.10 0.10 98
20260509125120 51 156 1.0 2.0 0.00 0.10 0.10 99
20260509124616 51 149 2.0 3.0 0.00 0.10 0.10 99
20260509124114 51 108 0.0 0.0 0.00 0.10 0.10 99
20260509123612 51 84 0.0 0.0 0.00 0.10 0.10 99
20260509123108 50 95 0.0 0.0 0.00 0.10 0.10 99
20260509122604 50 78 0.0 0.0 0.00 0.10 0.10 99
20260509122102 50 109 0.0 1.0 0.00 0.10 0.10 99
20260509121558 50 77 1.0 2.0 0.00 0.10 0.10 99
20260509121055 50 105 0.0 1.0 0.00 0.10 0.10 99
20260509120553 50 145 1.0 1.0 0.00 0.10 0.10 99
20260509120052 50 107 1.0 1.0 0.00 0.10 0.10 99
20260509115548 50 153 1.0 2.0 0.00 0.10 0.10 99
20260509115046 50 92 0.0 0.0 0.00 0.10 0.10 99
20260509114544 50 40 0.0 0.0 0.00 0.10 0.10 99
20260509114043 50 140 2.0 2.0 0.00 0.10 0.10 99
20260509113540 50 139 0.0 0.0 0.00 0.10 0.10 99
20260509113038 50 83 0.0 0.0 0.00 0.10 0.10 99
20260509112534 50 85 0.0 0.0 0.00 0.10 0.10 99
20260509112031 50 79 0.0 0.0 0.00 0.10 0.10 99
20260509111528 50 166 1.0 1.0 0.00 0.10 0.10 99
20260509111026 50 119 1.0 1.0 0.00 0.10 0.10 99
20260509110522 50 121 0.0 0.0 0.00 0.10 0.10 99
20260509110019 50 83 0.0 0.0 0.00 0.10 0.10 99
20260509105517 50 81 0.0 0.0 0.00 0.10 0.10 99
20260509105015 50 132 0.0 0.0 0.00 0.10 0.10 99
20260509104511 50 179 1.0 2.0 0.00 0.10 0.10 99
20260509104008 50 154 0.0 1.0 0.00 0.10 0.10 99
20260509103506 50 115 0.0 0.0 0.00 0.10 0.10 99
20260509103004 50 164 1.0 1.0 0.00 0.10 0.10 99
20260509102502 50 131 1.0 1.0 0.00 0.10 0.10 99
20260509101958 50 89 0.0 0.0 0.00 0.10 0.10 99
20260509101454 50 140 0.0 1.0 0.00 0.10 0.10 99
20260509100951 50 113 0.0 1.0 0.00 0.10 0.10 99
20260509100448 50 89 1.0 2.0 0.00 0.10 0.10 99
20260509095945 49 84 0.0 0.0 0.00 0.10 0.10 99
20260509095442 50 171 0.0 0.0 0.00 0.10 0.10 99
20260509094939 50 71 0.0 0.0 0.00 0.10 0.10 99
20260509094435 50 86 0.0 0.0 0.00 0.10 0.10 99
20260509093933 50 110 1.0 1.0 0.00 0.10 0.10 99
20260509093430 50 112 0.0 0.0 0.00 0.10 0.10 99
20260509092928 50 161 0.0 1.0 0.00 0.10 0.10 99
20260509092426 50 94 0.0 0.0 0.00 0.10 0.10 99
20260509091925 49 73 0.0 0.0 0.00 0.10 0.10 99
20260509091421 49 74 0.0 0.0 0.00 0.10 0.10 99
20260509090918 49 57 0.0 0.0 0.00 0.10 0.10 99
20260509090415 49 135 1.0 1.0 0.00 0.10 0.10 99
20260509085913 49 167 4.0 6.0 0.00 0.10 0.10 99
20260509085410 49 133 2.0 3.0 0.00 0.10 0.10 99
20260509084906 49 159 0.0 1.0 0.00 0.10 0.10 99
20260509084403 49 92 0.0 0.0 0.00 0.10 0.10 99
20260509083901 50 110 1.0 1.0 0.00 0.10 0.10 99
20260509083357 49 99 0.0 0.0 0.00 0.10 0.10 99
20260509082854 49 74 0.0 0.0 0.00 0.10 0.10 99
20260509082351 49 165 2.0 2.0 0.00 0.10 0.10 99
20260509081848 50 103 1.0 2.0 0.01 0.10 0.10 99
20260509081345 49 82 0.0 0.0 0.02 0.10 0.10 99
20260509080843 49 60 0.0 0.0 0.02 0.10 0.10 99
20260509080341 49 97 0.0 0.0 0.02 0.10 0.10 99
20260509075839 49 84 0.0 0.0 0.02 0.10 0.10 99
20260509075335 49 83 0.0 0.0 0.02 0.10 0.10 99
20260509074832 49 120 0.0 0.0 0.02 0.10 0.10 99
20260509074330 49 83 0.0 0.0 0.02 0.10 0.10 99
20260509073826 49 106 0.0 0.0 0.02 0.10 0.10 99
20260509073323 49 72 0.0 0.0 0.02 0.10 0.10 99
20260509072820 49 84 0.0 0.0 0.02 0.10 0.10 99
20260509072316 49 83 0.0 0.0 0.01 0.09 0.09 99
20260509071813 49 114 0.0 0.0 0.00 0.08 0.08 99
20260509071310 49 85 0.0 0.0 0.00 0.08 0.08 99
20260509070807 49 65 0.0 0.0 0.00 0.08 0.08 99
20260509070304 49 83 0.0 0.0 0.00 0.08 0.08 99
20260509065800 49 130 0.0 0.0 0.00 0.08 0.08 99
20260509065256 49 148 0.0 0.0 0.01 0.08 0.08 99
20260509064752 49 93 0.0 0.0 0.01 0.08 0.08 99
20260509064250 49 82 0.0 0.0 0.02 0.08 0.08 99
20260509063747 49 160 1.0 1.0 0.02 0.08 0.08 99
20260509063244 49 95 0.0 0.0 0.02 0.08 0.08 99
20260509062741 49 48 0.0 0.0 0.02 0.08 0.08 99
20260509062238 49 72 0.0 0.0 0.03 0.08 0.08 99
20260509061735 49 89 0.0 0.0 0.03 0.08 0.08 99
20260509061233 49 68 0.0 0.0 0.04 0.08 0.08 99
20260509060730 49 76 0.0 0.0 0.04 0.08 0.08 99
20260509060226 49 139 2.0 3.0 0.04 0.08 0.08 99
20260509055722 50 135 1.0 1.0 0.04 0.08 0.08 99
20260509055218 49 88 0.0 0.0 0.03 0.07 0.07 99
20260509054714 50 184 0.0 0.0 0.04 0.07 0.07 99
20260509054212 50 72 0.0 0.0 0.03 0.06 0.06 99
20260509053711 50 98 1.0 2.0 0.05 0.06 0.06 99
20260509053207 50 80 1.0 2.0 0.05 0.06 0.06 99
20260509052705 50 105 0.0 0.0 0.05 0.05 0.05 99
20260509052202 50 191 0.0 0.0 0.05 0.05 0.05 99
20260509051700 50 190 2.0 2.0 0.05 0.05 0.05 99
20260509051157 50 169 2.0 2.0 0.04 0.04 0.04 99
20260509050654 50 169 1.0 1.0 0.04 0.04 0.04 99
20260509050150 50 81 0.0 0.0 0.04 0.04 0.04 99
20260509045648 50 144 1.0 2.0 0.04 0.04 0.04 99
20260509045144 50 124 0.0 0.0 0.04 0.04 0.04 99
20260509044641 50 123 1.0 1.0 0.03 0.03 0.03 99
20260509044139 49 128 0.0 1.0 0.03 0.03 0.03 99
20260509043636 49 108 0.0 0.0 0.01 0.01 0.01 99
20260509043131 49 104 0.0 0.0 0.00 0.00 0.00 99
20260509042628 49 122 0.0 0.0 0.00 0.00 0.00 99
20260509042124 49 83 0.0 0.0 0.00 0.00 0.00 99
20260509041621 49 179 0.0 1.0 0.00 0.00 0.00 99
20260509041118 49 109 0.0 0.0 0.00 0.00 0.00 99
20260509040617 49 89 0.0 0.0 0.00 0.00 0.00 99
20260509040114 49 175 1.0 2.0 0.00 0.00 0.00 99
20260509035610 49 172 0.0 0.0 0.00 0.34 0.34 99
20260509035107 49 83 0.0 0.0 0.01 0.34 0.34 98
20260509034605 49 112 0.0 0.0 0.01 0.34 0.34 98
20260509034101 49 94 0.0 0.0 0.01 0.34 0.34 98
20260509033558 49 166 0.0 1.0 0.01 0.34 0.34 98
20260509033055 50 139 0.0 0.0 0.01 0.34 0.34 98
20260509032553 50 133 0.0 0.0 0.01 0.34 0.34 98
20260509032049 50 83 0.0 0.0 0.01 0.34 0.34 98
20260509031547 50 149 0.0 2.0 0.01 0.34 0.34 98
20260509031044 50 162 2.0 2.0 0.01 0.34 0.34 98
20260509030543 50 84 0.0 0.0 0.01 0.34 0.34 98
20260509030039 50 98 0.0 0.0 0.02 0.34 0.34 98
20260509025535 50 167 2.0 2.0 0.02 0.34 0.34 98
20260509025031 50 81 0.0 0.0 0.01 0.33 0.33 98
20260509024527 50 104 0.0 0.0 0.02 0.33 0.33 98
20260509024023 50 109 1.0 1.0 0.02 0.33 0.33 98
20260509023521 50 81 0.0 0.0 0.03 0.33 0.33 98
20260509023018 50 109 0.0 0.0 0.03 0.33 0.33 98
20260509022514 50 113 0.0 0.0 0.04 0.33 0.33 98
20260509022012 50 126 0.0 0.0 0.05 0.33 0.33 98
20260509021509 50 113 1.0 1.0 0.06 0.33 0.33 98
20260509021006 50 125 0.0 1.0 0.07 0.33 0.33 98
20260509020504 50 80 0.0 0.0 0.07 0.32 0.32 98
20260509020001 50 96 0.0 0.0 0.08 0.32 0.32 98
20260509015500 49 84 0.0 1.0 0.09 0.32 0.32 98
20260509014956 49 84 0.0 0.0 0.09 0.31 0.31 98
20260509014453 49 131 1.0 1.0 0.10 0.31 0.31 98
20260509013949 49 84 0.0 0.0 0.11 0.31 0.31 97
20260509013447 49 80 0.0 0.0 0.10 0.30 0.30 97
20260509012942 49 91 0.0 0.0 0.10 0.29 0.29 97
20260509012439 49 95 0.0 1.0 0.10 0.28 0.28 97
20260509011935 49 91 0.0 0.0 0.10 0.27 0.27 97
20260509011433 49 86 0.0 0.0 0.10 0.26 0.26 97
20260509010930 49 84 0.0 0.0 0.10 0.25 0.25 97
20260509010428 49 94 0.0 0.0 0.09 0.24 0.24 96
20260509005925 49 95 0.0 0.0 0.08 0.23 0.23 96
20260509005423 50 94 0.0 1.0 0.07 0.22 0.22 96
20260509004922 50 73 0.0 0.0 0.06 0.21 0.21 95
20260509004420 50 79 0.0 0.0 0.05 0.20 0.20 95
20260509003917 50 85 0.0 0.0 0.05 0.20 0.20 95
20260509003415 50 60 0.0 0.0 0.04 0.19 0.19 95
20260509002911 50 60 0.0 0.0 0.03 0.18 0.18 94
20260509002410 50 85 0.0 0.0 0.02 0.17 0.17 94
20260509001907 50 84 0.0 0.0 0.01 0.16 0.16 94
20260509001403 50 78 0.0 0.0 0.01 0.15 0.15 93
20260509000900 50 94 0.0 0.0 0.01 0.15 0.15 93
20260509000358 50 83 0.0 0.0 0.01 0.15 0.15 92
20260508235853 50 85 0.0 0.0 0.01 0.15 0.15 92
20260508235351 51 55 0.0 0.0 0.01 0.15 0.15 92
20260508234848 51 101 0.0 1.0 0.01 0.15 0.15 92